GFSFLT1_sfc_30mbdewp_189.txt.gz
Dewpoint
26 32 40 47 53 56 55 52 51 52 49 46 44 45 42 42 41 42 43 41 41 38 38 40 36 36 37 38 38 36 34 35
23 28 40 47 54 56 54 52 51 50 48 45 44 42 42 41 41 44 42 41 40 39 38 39 37 38 39 40 37 37 34 35
24 23 40 49 53 56 54 51 50 50 48 45 43 42 41 41 42 42 41 41 40 38 37 37 37 39 40 40 38 35 34 36
27 26 42 51 53 55 53 51 50 50 46 44 42 42 42 41 42 42 41 40 38 38 38 38 39 38 38 38 37 37 33 34
33 33 42 51 53 53 53 52 50 49 46 43 42 40 40 40 41 40 40 39 38 38 38 39 38 37 37 36 37 36 33 32
35 36 36 49 51 53 54 53 51 50 48 44 43 41 40 40 40 41 39 39 38 37 38 39 38 37 39 37 36 34 33 30
36 36 40 44 49 53 54 53 50 49 48 46 44 43 40 40 40 40 38 37 37 37 38 38 38 37 35 34 34 34 33 31
35 36 38 42 46 52 53 52 49 48 48 47 46 45 42 40 40 38 37 35 35 36 36 37 37 35 33 33 33 33 32 31
35 36 38 39 44 47 50 50 48 47 48 47 47 46 42 41 39 37 36 36 37 37 36 35 33 32 31 31 30 31 32 31
34 36 38 38 40 43 47 48 46 46 46 47 45 44 42 40 39 38 36 36 36 36 36 34 32 30 29 28 28 29 29 29
34 35 37 38 39 41 46 47 44 44 44 43 42 42 41 39 38 36 36 35 36 34 33 31 30 29 27 26 26 27 26 25
33 35 37 38 39 41 42 42 41 41 41 40 39 39 38 36 36 35 35 35 33 32 30 28 27 27 25 25 24 24 22 21
33 35 36 37 38 39 40 39 39 39 39 38 38 37 37 36 35 35 35 34 32 31 30 28 27 25 23 21 18 20 19 18
33 35 36 37 37 38 38 38 38 37 37 37 37 36 36 35 35 35 35 34 33 33 31 29 25 20 20 20 19 19 18 17
34 35 39 38 38 37 38 38 37 37 37 37 37 36 36 36 36 37 36 34 33 32 29 26 23 17 16 16 18 18 16 17
28 34 39 39 38 37 37 37 38 37 36 37 37 37 35 34 34 34 34 35 32 28 27 24 21 18 15 16 16 15 15 14
25 32 35 39 38 37 37 38 38 38 37 35 34 32 32 33 33 34 34 30 28 26 24 22 19 14 17 19 18 11 10 10
29 31 34 37 39 38 38 38 37 36 34 33 33 32 32 32 33 33 33 29 25 21 20 21 19 17 16 16 18 11 8 7
27 28 29 32 39 39 40 38 37 35 34 32 32 33 32 32 33 31 28 24 22 19 19 21 20 17 15 15 16 11 9 8

GFSFLT1_sfc_30mbdewp_192.txt.gz
Dewpoint
25 27 32 36 52 60 58 55 55 55 53 51 49 49 48 48 47 47 47 45 44 42 43 42 42 41 41 42 40 38 39 38
28 28 31 37 48 60 57 55 55 54 52 49 47 46 46 46 46 47 46 45 43 43 43 42 41 43 43 44 42 39 37 39
28 29 31 40 51 59 57 54 54 53 51 49 47 47 46 45 47 46 45 44 43 43 42 41 43 42 42 42 41 37 37 39
33 34 36 45 51 58 57 54 53 52 51 49 47 46 45 45 46 45 44 44 42 42 42 42 42 43 42 41 40 40 38 38
34 36 36 49 52 58 56 54 52 52 51 48 46 44 43 43 45 44 43 43 41 42 42 42 42 41 41 40 39 39 40 35
36 37 39 40 55 56 56 54 52 52 51 48 46 44 43 44 44 44 42 42 41 41 42 42 42 42 40 40 38 36 35 33
36 36 39 42 55 56 56 54 52 51 51 50 46 45 44 43 43 42 41 40 41 41 42 42 40 39 37 37 37 36 35 33
35 36 38 42 53 55 56 54 52 51 51 49 47 46 45 43 43 42 40 39 39 41 41 40 38 37 36 36 36 36 36 34
36 38 39 39 45 51 52 52 51 50 50 48 48 48 46 44 42 41 39 38 39 40 38 36 35 35 33 34 35 34 35 34
35 37 39 39 41 44 50 49 49 50 49 49 49 47 45 43 42 40 39 39 39 37 36 34 33 33 32 32 32 32 32 32
35 36 38 39 41 46 49 49 46 47 47 46 45 44 43 41 40 38 37 37 37 37 36 35 34 32 30 31 30 30 29 30
34 36 38 40 42 42 42 42 43 43 43 43 42 41 40 39 38 37 38 37 36 35 33 31 31 29 28 28 28 27 26 25
35 36 37 38 40 40 41 41 40 40 40 41 41 39 39 38 37 37 36 34 33 31 30 29 27 27 28 27 25 26 25 23
34 36 37 38 38 39 40 40 39 39 39 39 39 39 37 37 37 36 35 33 32 31 30 29 29 29 29 28 26 25 23 22
33 39 38 39 38 38 39 39 39 39 38 37 37 37 36 36 36 35 34 34 33 33 32 31 29 26 25 23 23 22 21 21
25 38 40 39 39 38 37 37 38 38 37 37 36 36 36 36 36 35 35 35 34 34 32 27 21 21 20 21 21 20 18 19
18 26 41 39 39 38 37 37 37 38 37 37 37 35 34 33 33 33 33 33 33 33 27 25 22 20 24 22 20 18 17 16
35 32 36 40 39 38 38 38 38 38 37 35 33 33 32 32 33 33 33 32 32 29 27 22 23 22 22 20 19 15 14 12
33 29 27 39 41 39 39 38 38 36 35 34 33 33 32 32 33 32 32 31 30 30 27 26 22 16 18 17 17 16 12 12

GFSFLT1_sfc_30mbdewp_195.txt.gz
Dewpoint
26 26 38 59 60 62 61 59 58 55 53 51 50 50 50 51 50 49 48 46 45 43 43 40 43 41 41 41 38 39 41 42
26 27 27 43 58 61 59 57 57 54 52 49 49 48 49 48 48 48 46 45 45 44 42 41 43 40 42 42 39 36 38 43
27 29 32 33 53 60 58 56 56 54 52 49 48 47 47 47 48 47 46 44 44 43 42 42 44 43 41 41 40 38 37 40
34 35 37 42 56 59 57 55 55 53 51 49 48 47 46 46 46 45 44 44 43 43 42 43 43 43 41 41 41 37 35 37
36 37 39 41 56 58 56 55 54 53 51 48 46 45 44 45 45 45 44 43 43 43 43 43 43 43 41 39 39 38 38 34
35 37 39 47 57 57 55 54 53 52 51 49 46 45 44 45 44 43 43 42 43 43 42 42 42 41 39 37 36 35 37 35
36 38 44 53 58 57 56 54 54 53 52 49 46 45 45 44 44 42 41 41 42 43 43 41 39 38 37 36 35 34 33 32
37 38 39 49 53 55 56 54 53 53 53 51 48 45 44 44 43 42 41 41 41 42 40 38 37 37 37 37 37 35 34 32
38 39 39 40 49 52 53 53 53 53 52 51 48 46 44 44 42 41 40 41 42 40 38 36 35 35 36 36 35 34 34 33
37 38 39 42 46 50 50 50 50 50 50 50 50 48 45 44 42 41 41 40 39 37 35 34 34 34 34 34 34 34 33 32
42 38 40 43 43 44 45 46 47 48 48 49 47 46 44 43 41 40 39 38 37 35 34 34 34 34 35 35 35 35 33 31
42 43 41 41 42 42 42 43 44 45 44 44 44 44 43 41 39 39 39 39 38 37 36 36 36 36 36 35 34 31 29 27
40 43 40 40 40 41 41 41 41 42 43 42 41 40 40 39 39 38 38 37 36 35 35 34 32 32 31 30 29 29 28 27
37 40 42 40 40 40 40 40 40 40 41 40 40 39 39 39 38 37 37 35 34 33 32 32 32 31 30 29 28 27 26 26
34 38 41 39 39 39 39 39 39 39 39 39 38 38 38 37 36 35 35 34 33 32 31 31 31 30 29 27 26 25 25 26
30 32 40 39 39 39 39 39 39 38 38 37 37 37 37 36 35 34 34 33 33 33 32 32 32 32 30 26 24 23 24 21
27 26 41 39 39 38 38 38 38 38 37 37 36 36 36 35 34 33 33 33 33 32 31 31 27 26 28 26 23 21 21 20
36 40 41 41 40 38 37 37 38 38 37 37 36 35 33 33 33 33 32 32 32 31 30 24 26 28 28 25 23 21 19 19
36 36 42 43 41 38 38 38 38 37 36 35 34 34 33 33 33 32 32 31 31 30 27 26 26 24 22 20 20 19 18 19

GFSFLT1_sfc_30mbdewp_201.txt.gz
Dewpoint
38 57 60 61 62 62 62 63 64 63 61 59 58 56 56 55 55 54 53 53 51 47 44 41 42 41 41 42 41 44 47 45
36 37 40 60 61 61 62 62 63 63 60 58 56 55 54 53 54 53 52 51 50 46 43 41 42 41 41 41 41 44 45 45
39 44 49 52 51 57 61 62 63 62 61 59 57 56 53 52 52 51 51 50 48 45 43 42 41 41 42 40 40 42 43 44
38 39 43 49 54 56 56 61 62 62 61 58 52 50 49 50 50 50 49 48 46 44 42 42 42 42 41 40 40 41 42 44
39 39 41 44 51 55 55 57 62 61 61 57 52 52 51 50 50 50 47 46 45 44 42 42 42 42 42 41 40 39 42 42
39 40 42 45 49 52 56 56 61 60 60 57 51 50 51 49 50 48 47 45 45 44 43 42 43 43 42 41 40 38 39 41
39 40 42 43 47 48 53 55 55 55 57 55 51 51 48 48 48 48 46 45 44 43 43 43 43 42 40 39 38 39 37 37
38 39 40 41 43 45 48 51 53 55 54 53 51 51 48 48 48 48 46 44 43 43 43 42 41 39 37 36 36 35 35 34
37 38 40 40 42 44 45 48 50 51 53 54 53 52 50 49 49 49 46 44 43 42 42 41 39 38 37 36 35 34 33 31
37 38 37 40 41 42 43 45 47 50 50 51 53 51 50 49 49 48 47 45 44 42 40 39 38 37 36 35 34 32 33 33
36 37 38 39 41 41 42 43 45 47 48 49 49 51 51 50 49 47 46 44 42 40 38 37 37 37 37 36 34 34 33 34
33 36 38 40 42 41 40 41 43 44 45 46 47 48 49 47 46 45 44 42 40 39 38 38 37 37 37 36 35 35 35 35
32 35 37 39 41 41 40 40 41 42 42 44 44 44 44 44 43 42 41 39 39 38 38 38 38 38 38 37 36 36 36 36
27 33 36 37 40 41 40 40 40 41 41 41 41 42 41 40 40 40 39 39 39 38 38 38 37 37 37 37 37 36 35 34
22 26 33 36 38 40 41 39 40 40 40 40 39 39 39 38 38 37 37 37 36 36 36 36 36 36 35 35 34 33 33 32
22 21 25 34 38 41 41 39 39 40 40 39 37 37 36 36 36 35 36 35 35 35 35 35 35 35 35 34 33 32 31 30
23 25 26 29 38 40 40 38 39 39 38 37 37 36 35 35 35 34 34 34 34 33 33 32 32 33 34 33 30 29 27 22
28 31 29 29 40 40 39 39 39 39 38 37 36 36 35 34 34 33 32 32 32 32 32 32 31 32 33 30 27 25 24 26
34 38 35 38 40 40 40 41 40 37 37 36 36 35 34 33 33 33 32 32 31 30 29 29 30 32 32 28 27 24 21 22

GFSFLT1_sfc_30mbdewp_204.txt.gz
Dewpoint
44 50 53 60 62 62 62 63 64 64 63 61 60 59 60 59 58 57 56 56 54 52 50 47 46 43 42 42 44 47 47 47
40 45 51 55 55 58 62 62 63 63 62 60 59 58 58 57 57 56 55 55 53 51 49 46 44 43 41 41 44 46 46 44
39 41 44 49 53 55 56 60 62 63 63 61 60 59 58 56 55 55 55 54 53 51 48 44 43 42 41 41 43 45 44 44
39 40 42 45 48 53 55 55 57 63 63 62 56 54 52 52 52 53 53 53 52 50 47 43 42 42 41 41 42 45 44 43
39 40 40 44 46 50 54 55 57 61 63 62 58 57 56 53 54 53 52 52 50 49 46 44 42 42 42 41 42 44 45 42
38 39 40 42 45 47 51 54 55 57 62 62 58 56 57 53 52 52 51 50 50 48 46 44 43 42 42 42 41 41 45 43
38 39 40 39 42 43 47 50 53 55 56 56 56 56 54 52 51 51 51 50 49 47 46 45 44 43 43 42 41 40 42 44
38 37 38 39 40 42 43 45 48 51 54 54 54 53 52 50 50 51 50 49 47 46 46 45 44 43 41 40 40 39 39 40
35 35 36 37 39 41 42 42 43 48 50 52 54 53 51 50 50 50 50 48 46 45 44 43 43 42 42 41 40 37 36 35
30 32 32 32 35 38 41 41 41 44 47 49 50 53 51 50 50 50 47 45 45 45 45 45 44 43 41 39 38 36 34 33
29 31 32 33 36 38 40 41 41 43 44 46 48 49 51 50 49 48 47 46 46 46 45 43 41 40 39 38 36 36 35 35
27 30 32 34 36 36 39 40 40 41 42 44 45 46 48 50 49 48 47 46 44 43 42 41 40 39 39 38 38 37 37 36
20 24 28 29 32 36 37 39 40 40 42 43 43 44 44 45 45 46 45 44 43 41 41 40 39 38 38 37 37 37 36 35
16 20 22 24 28 33 38 39 40 41 42 41 42 41 41 40 41 41 41 40 40 40 40 39 38 38 38 38 38 37 36 36
14 16 24 27 28 29 36 39 40 40 41 40 40 39 39 38 38 39 39 39 39 39 39 38 38 38 38 37 36 35 35 34
15 18 24 26 28 30 36 39 39 40 40 39 38 37 37 37 37 37 37 37 37 37 37 37 37 36 36 35 34 33 32 32
25 29 29 32 34 35 37 39 39 39 39 37 37 36 36 35 35 35 35 35 35 35 35 35 35 35 35 34 33 32 30 28
31 34 36 36 39 37 38 39 38 39 38 37 36 36 35 35 35 34 33 33 33 33 33 33 33 33 34 33 32 29 25 23
36 37 38 39 40 39 39 38 39 37 37 36 36 35 34 34 34 33 32 32 32 31 31 31 31 32 33 32 29 25 25 24